Regional Weather Roundup
Issued by NWS

Home | Current Version | Previous Version | Text Only | Print | Product List | Glossary Off
Versions: 1 2 3 4 5 6 7 8 9 10 11 12 13 14 15 16 17 18 19 20 21 22 23 24 25 26 27 28 29 30 31 32 33 34 35 36 37 38 39 40 41 42 43 44 45 46 47 48 49 50

000
ASUS43 KLOT 161310
RWRIL

ILLINOIS REGIONAL WEATHER ROUNDUP
NATIONAL WEATHER SERVICE CHICAGO/ROMEOVILLE IL
800 AM CDT WED APR 16 2014

NOTE: "FAIR" INDICATES FEW OR NO CLOUDS BELOW 12,000 FEET WITH NO
SIGNIFICANT WEATHER AND/OR OBSTRUCTIONS TO VISIBILITY.

* THESE STATIONS ARE NOT UNDER NWS QUALITY CONTROL. THEY ALSO MAY NOT
  REPORT WEATHER SUCH AS PRECIPITATION OR FOG.

ILZ001-002-007-009-015-016-024-161400-
NORTHWEST ILLINOIS

CITY           SKY/WX    TMP DP  RH WIND       PRES   REMARKS
MOLINE         PTSUNNY   35  24  64 SE13      30.16R WCI  26
STERLING*      MOSUNNY   36  27  69 SE8       30.21R WCI  29
SAVANNA*       CLOUDY    36  25  65 SE14      30.19S WCI  27
$$

ILZ003-004-008-010-011-017-018-161400-
NORTH CENTRAL ILLINOIS

CITY           SKY/WX    TMP DP  RH WIND       PRES   REMARKS
ROCKFORD       PTSUNNY   33  24  69 SE12      30.26R WCI  24
FREEPORT*      CLOUDY    34  29  81 SE12      30.22R WCI  25
ROCHELLE*      SUNNY     32  27  79 SE17      30.24R WCI  21
DE KALB*       FAIR      31  25  79 S15       30.26R WCI  20
PERU*          SUNNY     35  27  72 SE13      30.25S WCI  26
$$

ILZ005-006-012>014-019>023-161400-
NORTHEAST ILLINOIS

CITY           SKY/WX    TMP DP  RH WIND       PRES   REMARKS
CHICAGO-OHARE  MOSUNNY   34  21  59 S12       30.29R WCI  25
CHICAGO-MIDWAY MOSUNNY   35  20  54 S12       30.31R WCI  27
AURORA         PTSUNNY   33  25  72 SE13      30.28R WCI  24
LANSING*       SUNNY     33  21  60 S13       30.33R WCI  24
WAUKEGAN       SUNNY     34  21  59 S13       30.29R WCI  25
DUPAGE AIRPORT SUNNY     33  24  69 S12       30.27R WCI  24
KANKAKEE*      SUNNY     34  24  68 SE9       30.32R WCI  26
WHEELING       SUNNY     35  22  58 S13       30.30R WCI  26
MORRIS*        SUNNY     35  23  62 S15       30.28R WCI  25
ROMEOVILLE*    SUNNY     33  24  69 S15       30.29R WCI  22
NORTHERLY ISL    N/A     34  20  57 S8          N/A  WCI  27
$$

LMZ740>746-161400-
SOUTHERN LAKE MICHIGAN

STATION/POSITION SKY/WX   TEMP    WIND        PRES    VSBY  WAVE
                          AIR SEA DIR/SP/G                  HT/PER
                          (F)     (DEG/KT/KT) (MB)    (MI)  (FT/S)
WAUKEGAN HARBOR            36     180/ 16/ 19 1026.8R
HARRISON CRIB              34     180/ 20/ 24   N/A
BURNHAM HARBOR             35     180/  8/ 13   N/A
CALUMET HARBOR             33     150/  9/ 13 1027.2R
MICHIGAN CITY              32     140/ 11/ 14   N/A
$$

ILZ025>027-034>036-040-047-049-050-058-095>099-161400-
WEST-CENTRAL ILLINOIS

CITY           SKY/WX    TMP DP  RH WIND       PRES   REMARKS
QUINCY         MOSUNNY   40  23  50 S17       30.14R
GALESBURG*     MOSUNNY   37  28  69 SE12G18   30.17R WCI  29
MACOMB*        MOSUNNY   37  27  67 S18G24    30.19R WCI  27
JACKSONVILLE*  SUNNY     39  25  56 SE17G23   30.23R WCI  30
PITTSFIELD*    SUNNY     40  27  61 SE17      30.19R
$$

ILZ028>032-037-038-041>044-048-051>054-059>061-161400-
CENTRAL ILLINOIS

CITY           SKY/WX    TMP DP  RH WIND       PRES   REMARKS
PONTIAC        SUNNY     36  28  75 S16       30.28R WCI  26
BLOOMINGTON    SUNNY     33  25  73 S18G24    30.27R WCI  22
DECATUR        SUNNY     37  27  67 S15G21    30.29R WCI  28
PEORIA         SUNNY     38  23  55 S18       30.23R WCI  28
LACON*         SUNNY     37  25  63 S13       30.24R WCI  28
LINCOLN*       SUNNY     37  28  70 S15       30.27S WCI  28
SPRINGFIELD    SUNNY     40  24  53 S18       30.26R
TAYLORVILLE    SUNNY     36  27  69 SE13      30.27R WCI  27
$$

ILZ033-039-045-046-055>057-062-063-161400-
EAST-CENTRAL ILLINOIS

CITY           SKY/WX    TMP DP  RH WIND       PRES   REMARKS
CHAMPAIGN      SUNNY     34  26  72 SE13      30.30R WCI  25
RANTOUL*       SUNNY     35  26  69 S12       30.32R WCI  26
MATTOON        SUNNY     35  24  64 SE15      30.30R WCI  25
PARIS*         SUNNY     34  26  72 SE12      30.35R WCI  25
$$

ILZ079-100>102-161400-
SOUTHWEST ILLINOIS

CITY           SKY/WX    TMP DP  RH WIND       PRES   REMARKS
ALTON          MOSUNNY   39  23  52 S21       30.26R WCI  29
BELLEVILLE     MOSUNNY   39  26  61 SE14      30.27R WCI  30
CAHOKIA*       MOSUNNY   39  27  62 S12       30.26R WCI  32
SPARTA*        PTSUNNY   36  27  69 SE9       30.29R WCI  29
$$

ILZ064>066-069>071-074>076-080>082-084>086-088>090-092>094-161400-
SOUTH-CENTRAL ILLINOIS

CITY           SKY/WX    TMP DP  RH WIND       PRES   REMARKS
CARBONDALE     PTSUNNY   38  27  64 SE9       30.31R WCI  31
CAIRO*         SUNNY     43  28  54 SE13      30.32R
MARION         MOSUNNY   37  25  60 SE12      30.32R WCI  30
MT. VERNON     MOSUNNY   36  19  51 SE8       30.32R WCI  29
CENTRALIA*       N/A     37  24  59 SE10G16   30.30R WCI  30
SALEM*         MOSUNNY   38  28  67 SE8       30.30S WCI  32
METROPOLIS*    SUNNY     37  26  65 E5        30.32R WCI  34
$$

ILZ067-068-072-073-078-083-087-091-161400-
SOUTHEAST ILLINOIS

CITY           SKY/WX    TMP DP  RH WIND       PRES   REMARKS
FLORA*         SUNNY     36  29  74 SE8       30.33R WCI  30
FAIRFIELD*     SUNNY     37  28  70 SE7       30.33R WCI  32
HARRISBURG*    MOSUNNY   37  29  75 SE7       30.34R WCI  31
ROBINSON*      SUNNY     37  28  68 SE12      30.36R WCI  30
CARMI*         MOSUNNY   38  29  70 SE13      30.34R WCI  31
$$

ABBREVIATIONS USED IN REMARKS
   TC - TEMPERATURE IN CELSIUS
  WCI - WIND CHILL INDEX
   HX - HEAT INDEX
  VSB - VISIBILITY
$$




USA.gov is the U.S. government's official web portal to all federal, state and local government web resources and services.